Tracking 19212 objects as of 16-Jul-2018
HD Live streaming from Space Station
objects crossing your sky now

CZ-3B DEB

Track CZ-3B DEB now!


NORAD ID: 40165
Int'l Code: 2010-042S
Perigee: 895.1 km
Apogee: 40,888.0 km
Inclination: 27.7 °
Period: 746.6 minutes
Semi major axis: 27262 km
RCS: Unknown
Launch date: September 4, 2010
Source: People's Republic of China (PRC)
Launch site: Xichang Space Center, China (XSC)

Note: This is SATELLITE DEBRIS
aabbcc
Your satellite tracking list
Your tracking list is empty




NASA's NSSDC Master Catalog

Two Line Element Set (TLE):
1 40165U 10042S   18196.61295579 -.00000015 +00000-0 +70083-2 0  9999
2 40165 027.6656 169.0003 7334773 001.3931 088.8314 01.92865068048021
Source of the keplerian elements: AFSPC